Regional Weather Roundup
Issued by NWS

Home | Current Version | Previous Version | Graphics & Text | Print | Product List | Glossary On
Versions: 1 2 3 4 5 6 7 8 9 10 11 12 13 14 15 16 17 18 19 20 21 22 23 24 25 26 27 28 29 30 31 32 33 34 35 36 37 38 39 40 41 42 43 44 45 46 47 48 49 50
530
ASUS43 KOAX 061302
RWRNE

WEATHER ROUNDUP FOR NEBRASKA
NATIONAL WEATHER SERVICE OMAHA NE
700 AM CST TUE DEC 06 2016

NOTES: SATELLITE DATA IS BEING USED TO AUGMENT CLOUD COVER ABOVE
       12000 FEET.
       "FAIR" INDICATES FEW OR NO CLOUDS BELOW 12,000 FEET WITH NO
       SIGNIFICANT WEATHER AND/OR OBSTRUCTIONS TO VISIBILITY.

  * THESE STATIONS DO NOT REPORT WEATHER SUCH AS RAIN...SNOW OR FOG.

NEZ001>004-019>022-054>056-061400-
NEBRASKA PANHANDLE

CITY           SKY/WX    TMP DP  RH WIND       PRES   REMARKS
SCOTTSBLUFF    CLEAR      4  -2  76 N9        29.98S WCI -10
ALLIANCE       CLEAR      1  -4  79 SW8       29.95S WCI -13
CHADRON        CLEAR      9   2  73 SW12      30.00R WCI  -6
SIDNEY         CLEAR      4  -1  80 W7        29.96S WCI  -8
$$

NEZ057>060-069>072-079>082-061400-
SOUTHWEST NEBRASKA

CITY           SKY/WX    TMP DP  RH WIND       PRES   REMARKS
NORTH PLATTE   CLEAR     14   7  73 W8        30.00R WCI   3
IMPERIAL       CLEAR     13   4  67 NW8       30.01S WCI   2
MCCOOK         CLEAR     17   7  64 W9        30.05R WCI   6
$$

NEZ005>010-023>029-035>040-094-061400-
NORTH CENTRAL NEBRASKA

CITY           SKY/WX    TMP DP  RH WIND       PRES   REMARKS
VALENTINE      CLEAR     10   3  73 W10       29.96R WCI  -4
AINSWORTH      CLEAR     14   8  78 W9        29.95R WCI   1
BROKEN BOW     CLEAR     14   9  80 W8        29.98R WCI   3
ORD            CLEAR     16  10  77 W9        29.98R WCI   4
$$

NEZ041-046>049-061>064-073>077-083>087-061400-
SOUTH CENTRAL NEBRASKA

CITY           SKY/WX    TMP DP  RH WIND       PRES   REMARKS
GRAND ISLAND   CLEAR     19  12  74 NW8       30.01R WCI   9
AURORA         CLEAR     22  12  65 NW16G23   30.00R WCI   8
HASTINGS       CLEAR     20  13  74 NW8       30.02R WCI  10
KEARNEY *      CLEAR     18  10  73 W9        30.02R WCI   6
$$

NEZ011>018-030>034-042>045-061400-
NORTHEAST NEBRASKA

CITY           SKY/WX    TMP DP  RH WIND       PRES   REMARKS
TEKAMAH        CLEAR     21  11  65 NW10      29.99R WCI  10
$$

NEZ050>053-065>068-078-088>093-061400-
SOUTHEAST NEBRASKA

CITY           SKY/WX    TMP DP  RH WIND       PRES   REMARKS
LINCOLN        PTCLDY    24  11  57 NW12      30.01S WCI  13
OMAHA EPPLEY   CLEAR     23  11  60 NW17      29.99R WCI   9
FALLS CITY     CLEAR     28  20  71 NW13      29.99R WCI  17
NEBRASKA CITY  CLEAR     25  12  56 NW9       29.99R WCI  16
$$

NEZ044-045-051>053-067-061400-
OMAHA AREA

CITY           SKY/WX    TMP DP  RH WIND       PRES   REMARKS
OMAHA EPPLEY   CLEAR     23  11  60 NW17      29.99R WCI   9
OFFUTT AFB     CLEAR     21  14  74 NW9       29.99R WCI  11
$$




USA.gov is the U.S. government's official web portal to all federal, state and local government web resources and services.